| time (UTC) | temp F | wind direction | speed MPH | gust MPH | rain 1hr in | rain 24hr in | rain mn in | humidity % | barometer mb |
| 20260903135343 | 85 | 333 | 0.0 | 2.0 | 0.00 | 0.00 | 0.00 | 57 | 1011.2 |
| 20260903134334 | 85 | 340 | 2.0 | 4.0 | 0.00 | 0.00 | 0.00 | 56 | 1011.0 |
| 20260903133341 | 85 | 313 | 1.0 | 3.0 | 0.00 | 0.00 | 0.00 | 56 | 1010.9 |
| 20260903132326 | 85 | 302 | 0.0 | 4.0 | 0.00 | 0.00 | 0.00 | 55 | 1010.7 |
| 20260903131334 | 85 | 261 | 3.0 | 6.0 | 0.00 | 0.00 | 0.00 | 54 | 1010.6 |
| 20260903130345 | 85 | 288 | 0.0 | 7.0 | 0.00 | 0.00 | 0.00 | 54 | 1010.5 |
| 20260903125332 | 85 | 259 | 2.0 | 7.0 | 0.00 | 0.00 | 0.00 | 54 | 1010.5 |
| 20260903124340 | 86 | 298 | 3.0 | 9.0 | 0.00 | 0.00 | 0.00 | 54 | 1010.4 |
| 20260903123347 | 86 | 261 | 3.0 | 7.0 | 0.00 | 0.00 | 0.00 | 54 | 1010.3 |
| 20260903122339 | 86 | 240 | 4.0 | 8.0 | 0.00 | 0.00 | 0.00 | 53 | 1010.2 |
| 20260903121326 | 86 | 267 | 3.0 | 7.0 | 0.00 | 0.00 | 0.00 | 53 | 1010.2 |
| 20260903120333 | 86 | 257 | 1.0 | 6.0 | 0.00 | 0.00 | 0.00 | 52 | 1010.1 |
| 20260903115340 | 87 | 223 | 6.0 | 10.0 | 0.00 | 0.00 | 0.00 | 52 | 1010.0 |
| 20260903114330 | 87 | 267 | 0.0 | 5.0 | 0.00 | 0.00 | 0.00 | 51 | 1010.0 |
| 20260903113337 | 87 | 222 | 1.0 | 7.0 | 0.00 | 0.00 | 0.00 | 50 | 1010.0 |
| 20260903112343 | 87 | 217 | 2.0 | 5.0 | 0.00 | 0.00 | 0.00 | 49 | 1009.8 |
| 20260903111331 | 87 | 301 | 4.0 | 6.0 | 0.00 | 0.00 | 0.00 | 49 | 1009.8 |
| 20260903110401 | 88 | 256 | 3.0 | 7.0 | 0.00 | 0.00 | 0.00 | 48 | 1009.7 |
| 20260903105327 | 88 | 269 | 4.0 | 9.0 | 0.00 | 0.00 | 0.00 | 47 | 1009.8 |
| 20260903104355 | 88 | 257 | 3.0 | 11.0 | 0.00 | 0.00 | 0.00 | 47 | 1009.8 |
| 20260903103402 | 88 | 257 | 2.0 | 7.0 | 0.00 | 0.00 | 0.00 | 46 | 1009.9 |
| 20260903102328 | 88 | 292 | 3.0 | 11.0 | 0.00 | 0.00 | 0.00 | 46 | 1009.9 |
| 20260903101339 | 88 | 271 | 4.0 | 11.0 | 0.00 | 0.00 | 0.00 | 46 | 1009.9 |
| 20260903100327 | 88 | 302 | 3.0 | 8.0 | 0.00 | 0.00 | 0.00 | 42 | 1009.9 |
| 20260903095334 | 88 | 34 | 0.0 | 2.0 | 0.00 | 0.00 | 0.00 | 35 | 1010.0 |
| 20260903094340 | 89 | 337 | 0.0 | 1.0 | 0.00 | 0.00 | 0.00 | 34 | 1009.9 |
| 20260903093331 | 89 | 279 | 0.0 | 4.0 | 0.00 | 0.00 | 0.00 | 33 | 1009.8 |
| 20260903092337 | 89 | 281 | 0.0 | 3.0 | 0.00 | 0.00 | 0.00 | 32 | 1009.8 |
| 20260903091346 | 89 | 259 | 1.0 | 5.0 | 0.00 | 0.00 | 0.00 | 31 | 1009.7 |
| 20260903090331 | 89 | 277 | 2.0 | 7.0 | 0.00 | 0.00 | 0.00 | 30 | 1009.7 |
| 20260903085342 | 89 | 261 | 2.0 | 4.0 | 0.00 | 0.00 | 0.00 | 29 | 1009.7 |
| 20260903084330 | 89 | 304 | 1.0 | 6.0 | 0.00 | 0.00 | 0.00 | 27 | 1009.7 |
| 20260903083336 | 89 | 341 | 0.0 | 3.0 | 0.00 | 0.00 | 0.00 | 27 | 1009.8 |
| 20260903082343 | 90 | 326 | 0.0 | 1.0 | 0.00 | 0.00 | 0.00 | 28 | 1009.8 |
| 20260903081335 | 90 | 268 | 0.0 | 2.0 | 0.00 | 0.00 | 0.00 | 26 | 1009.8 |
| 20260903080341 | 90 | 313 | 0.0 | 3.0 | 0.00 | 0.00 | 0.00 | 26 | 1009.7 |
| 20260903075328 | 90 | 258 | 0.0 | 2.0 | 0.00 | 0.00 | 0.00 | 25 | 1009.7 |
| 20260903074334 | 90 | 240 | 0.0 | 2.0 | 0.00 | 0.00 | 0.00 | 25 | 1009.6 |
| 20260903073326 | 90 | 260 | 0.0 | 2.0 | 0.00 | 0.00 | 0.00 | 26 | 1009.6 |
| 20260903072353 | 90 | 213 | 0.0 | 2.0 | 0.00 | 0.00 | 0.00 | 26 | 1009.6 |
| 20260903071337 | 91 | 189 | 0.0 | 0.0 | 0.00 | 0.00 | 0.00 | 28 | 1009.7 |
| 20260903070344 | 91 | 189 | 0.0 | 0.0 | 0.00 | 0.00 | 0.00 | 28 | 1009.6 |
| 20260903065335 | 91 | 189 | 0.0 | 1.0 | 0.00 | 0.00 | 0.00 | 27 | 1009.5 |
| 20260903064341 | 92 | 215 | 0.0 | 2.0 | 0.00 | 0.00 | 0.00 | 27 | 1009.4 |
| 20260903063348 | 92 | 231 | 1.0 | 2.0 | 0.00 | 0.00 | 0.00 | 27 | 1009.3 |
| 20260903062334 | 93 | 221 | 1.0 | 3.0 | 0.00 | 0.00 | 0.00 | 27 | 1009.2 |
| 20260903061345 | 93 | 235 | 1.0 | 3.0 | 0.00 | 0.00 | 0.00 | 28 | 1009.3 |
| 20260903060352 | 94 | 216 | 1.0 | 4.0 | 0.00 | 0.00 | 0.00 | 28 | 1009.3 |
| 20260903055338 | 94 | 250 | 2.0 | 6.0 | 0.00 | 0.00 | 0.00 | 27 | 1009.2 |
| 20260903054405 | 94 | 227 | 2.0 | 7.0 | 0.00 | 0.00 | 0.00 | 26 | 1009.1 |
| 20260903053351 | 94 | 229 | 1.0 | 6.0 | 0.00 | 0.00 | 0.00 | 28 | 1009.2 |
| 20260903052342 | 95 | 296 | 2.0 | 9.0 | 0.00 | 0.00 | 0.00 | 29 | 1009.3 |
| 20260903051349 | 95 | 254 | 3.0 | 10.0 | 0.00 | 0.00 | 0.00 | 32 | 1009.3 |
| 20260903050355 | 95 | 259 | 4.0 | 7.0 | 0.00 | 0.00 | 0.00 | 35 | 1009.3 |
| 20260903045400 | 95 | 222 | 2.0 | 5.0 | 0.00 | 0.00 | 0.00 | 36 | 1009.3 |
| 20260903044326 | 96 | 220 | 3.0 | 7.0 | 0.00 | 0.00 | 0.00 | 35 | 1009.2 |
| 20260903043338 | 96 | 240 | 2.0 | 5.0 | 0.00 | 0.00 | 0.00 | 35 | 1009.2 |
| 20260903042326 | 96 | 269 | 2.0 | 5.0 | 0.00 | 0.00 | 0.00 | 35 | 1009.2 |
| 20260903041333 | 96 | 260 | 1.0 | 5.0 | 0.00 | 0.00 | 0.00 | 34 | 1009.2 |
| 20260903040325 | 96 | 254 | 3.0 | 7.0 | 0.00 | 0.00 | 0.00 | 33 | 1009.1 |
| 20260903035331 | 97 | 249 | 1.0 | 4.0 | 0.00 | 0.00 | 0.00 | 33 | 1008.9 |
| 20260903034337 | 97 | 246 | 2.0 | 8.0 | 0.00 | 0.00 | 0.00 | 32 | 1008.9 |
| 20260903033344 | 97 | 270 | 3.0 | 9.0 | 0.00 | 0.00 | 0.00 | 32 | 1008.9 |
| 20260903032350 | 97 | 231 | 5.0 | 8.0 | 0.00 | 0.00 | 0.00 | 31 | 1008.8 |
| 20260903031338 | 98 | 227 | 2.0 | 6.0 | 0.00 | 0.00 | 0.00 | 29 | 1008.7 |
| 20260903030346 | 98 | 244 | 4.0 | 10.0 | 0.00 | 0.00 | 0.00 | 29 | 1008.6 |
| 20260903025332 | 98 | 273 | 5.0 | 11.0 | 0.00 | 0.00 | 0.00 | 29 | 1008.5 |
| 20260903024338 | 98 | 273 | 3.0 | 9.0 | 0.00 | 0.00 | 0.00 | 30 | 1008.5 |
| 20260903023330 | 98 | 207 | 4.0 | 11.0 | 0.00 | 0.00 | 0.00 | 30 | 1008.3 |
| 20260903022337 | 98 | 267 | 4.0 | 7.0 | 0.00 | 0.00 | 0.00 | 29 | 1008.2 |
| 20260903021343 | 98 | 279 | 2.0 | 6.0 | 0.00 | 0.00 | 0.00 | 29 | 1008.2 |
| 20260903020335 | 99 | 250 | 4.0 | 9.0 | 0.00 | 0.00 | 0.00 | 28 | 1008.1 |
| 20260903015342 | 99 | 271 | 3.0 | 6.0 | 0.00 | 0.00 | 0.00 | 28 | 1008.0 |
| 20260903014330 | 99 | 268 | 2.0 | 6.0 | 0.00 | 0.00 | 0.00 | 28 | 1008.0 |
| 20260903013336 | 100 | 292 | 1.0 | 6.0 | 0.00 | 0.00 | 0.00 | 28 | 1007.9 |
| 20260903012403 | 100 | 274 | 4.0 | 10.0 | 0.00 | 0.00 | 0.00 | 28 | 1007.9 |
| 20260903011354 | 100 | 244 | 3.0 | 11.0 | 0.00 | 0.00 | 0.00 | 28 | 1007.9 |
| 20260903010340 | 101 | 252 | 5.0 | 11.0 | 0.00 | 0.00 | 0.00 | 28 | 1007.9 |
| 20260903005327 | 102 | 263 | 3.0 | 10.0 | 0.00 | 0.00 | 0.00 | 27 | 1007.9 |
| 20260903004354 | 102 | 255 | 2.0 | 8.0 | 0.00 | 0.00 | 0.00 | 28 | 1007.8 |
| 20260903003343 | 102 | 273 | 3.0 | 12.0 | 0.00 | 0.00 | 0.00 | 28 | 1007.9 |
| 20260903002330 | 102 | 293 | 2.0 | 10.0 | 0.00 | 0.00 | 0.00 | 27 | 1007.8 |
| 20260903001339 | 102 | 236 | 3.0 | 12.0 | 0.00 | 0.00 | 0.00 | 28 | 1007.9 |
| 20260903000406 | 102 | 273 | 5.0 | 12.0 | 0.00 | 0.00 | 0.00 | 27 | 1008.0 |
| 20260902235335 | 102 | 265 | 4.0 | 13.0 | 0.00 | 0.00 | 0.00 | 27 | 1008.1 |
| 20260902234403 | 103 | 297 | 3.0 | 8.0 | 0.00 | 0.00 | 0.00 | 27 | 1008.2 |
| 20260902233348 | 102 | 294 | 4.0 | 13.0 | 0.00 | 0.00 | 0.00 | 27 | 1008.3 |
| 20260902232335 | 103 | 253 | 7.0 | 10.0 | 0.00 | 0.00 | 0.00 | 27 | 1008.4 |
| 20260902231342 | 102 | 44 | 1.0 | 12.0 | 0.00 | 0.00 | 0.00 | 27 | 1008.4 |
| 20260902230334 | 102 | 182 | 4.0 | 13.0 | 0.00 | 0.00 | 0.00 | 27 | 1008.6 |
| 20260902225341 | 103 | 121 | 6.0 | 15.0 | 0.00 | 0.00 | 0.00 | 26 | 1008.7 |
| 20260902224327 | 104 | 259 | 6.0 | 14.0 | 0.00 | 0.00 | 0.00 | 26 | 1008.9 |
| 20260902223338 | 103 | 162 | 2.0 | 10.0 | 0.00 | 0.00 | 0.00 | 26 | 1008.9 |
| 20260902222326 | 103 | 229 | 6.0 | 14.0 | 0.00 | 0.00 | 0.00 | 26 | 1009.1 |
| 20260902221333 | 103 | 303 | 5.0 | 12.0 | 0.00 | 0.00 | 0.00 | 26 | 1009.2 |
| 20260902220359 | 103 | 263 | 3.0 | 10.0 | 0.00 | 0.00 | 0.00 | 25 | 1009.3 |
| 20260902215330 | 103 | 215 | 4.0 | 11.0 | 0.00 | 0.00 | 0.00 | 25 | 1009.5 |
| 20260902214337 | 103 | 212 | 4.0 | 12.0 | 0.00 | 0.00 | 0.00 | 25 | 1009.6 |
| 20260902213344 | 103 | 268 | 6.0 | 14.0 | 0.00 | 0.00 | 0.00 | 25 | 1009.6 |
| 20260902212330 | 103 | 205 | 4.0 | 12.0 | 0.00 | 0.00 | 0.00 | 26 | 1009.8 |
| 20260902211341 | 103 | 185 | 6.0 | 10.0 | 0.00 | 0.00 | 0.00 | 26 | 1009.9 |
| 20260902210329 | 103 | 215 | 4.0 | 12.0 | 0.00 | 0.00 | 0.00 | 25 | 1010.0 |
| 20260902205336 | 102 | 270 | 2.0 | 10.0 | 0.00 | 0.00 | 0.00 | 25 | 1010.1 |
| 20260902204403 | 102 | 215 | 3.0 | 8.0 | 0.00 | 0.00 | 0.00 | 25 | 1010.2 |
| 20260902203332 | 102 | 269 | 3.0 | 11.0 | 0.00 | 0.00 | 0.00 | 26 | 1010.5 |
| 20260902202340 | 102 | 284 | 6.0 | 12.0 | 0.00 | 0.00 | 0.00 | 27 | 1010.7 |
| 20260902201328 | 101 | 360 | 1.0 | 8.0 | 0.00 | 0.00 | 0.00 | 28 | 1010.9 |
| 20260902200335 | 101 | 194 | 2.0 | 8.0 | 0.00 | 0.00 | 0.00 | 29 | 1011.1 |
| 20260902195343 | 100 | 265 | 6.0 | 10.0 | 0.00 | 0.00 | 0.00 | 29 | 1011.2 |
| 20260902194330 | 100 | 294 | 5.0 | 10.0 | 0.00 | 0.00 | 0.00 | 29 | 1011.4 |
| 20260902193338 | 100 | 178 | 4.0 | 8.0 | 0.00 | 0.00 | 0.00 | 29 | 1011.5 |
| 20260902192346 | 100 | 93 | 1.0 | 9.0 | 0.00 | 0.00 | 0.00 | 29 | 1011.7 |
| 20260902191356 | 100 | 215 | 5.0 | 10.0 | 0.00 | 0.00 | 0.00 | 29 | 1011.8 |
| 20260902190341 | 100 | 211 | 3.0 | 9.0 | 0.00 | 0.00 | 0.00 | 30 | 1012.0 |
| 20260902185349 | 99 | 307 | 3.0 | 9.0 | 0.00 | 0.00 | 0.00 | 30 | 1012.1 |
| 20260902184332 | 99 | 217 | 3.0 | 8.0 | 0.00 | 0.00 | 0.00 | 30 | 1012.2 |
| 20260902183338 | 99 | 291 | 2.0 | 10.0 | 0.00 | 0.00 | 0.00 | 31 | 1012.3 |
| 20260902182330 | 99 | 223 | 3.0 | 6.0 | 0.00 | 0.00 | 0.00 | 31 | 1012.4 |
| 20260902181335 | 99 | 63 | 1.0 | 8.0 | 0.00 | 0.00 | 0.00 | 32 | 1012.5 |
| 20260902180342 | 98 | 103 | 1.0 | 9.0 | 0.00 | 0.00 | 0.00 | 34 | 1012.6 |
| 20260902175329 | 98 | 195 | 5.0 | 8.0 | 0.00 | 0.00 | 0.00 | 34 | 1012.7 |
| 20260902174340 | 97 | 165 | 2.0 | 6.0 | 0.00 | 0.00 | 0.00 | 35 | 1012.8 |
| 20260902173407 | 97 | 293 | 0.0 | 5.0 | 0.00 | 0.00 | 0.00 | 38 | 1012.8 |
| 20260902172332 | 96 | 313 | 1.0 | 3.0 | 0.00 | 0.00 | 0.00 | 38 | 1012.9 |
| 20260902171339 | 95 | 116 | 2.0 | 4.0 | 0.00 | 0.00 | 0.00 | 39 | 1012.9 |
| 20260902170329 | 95 | 37 | 3.0 | 5.0 | 0.00 | 0.00 | 0.00 | 40 | 1013.0 |
| 20260902165335 | 95 | 78 | 3.0 | 8.0 | 0.00 | 0.00 | 0.00 | 40 | 1013.0 |
| 20260902164402 | 94 | 220 | 1.0 | 3.0 | 0.00 | 0.00 | 0.00 | 41 | 1012.9 |
| 20260902163328 | 95 | 28 | 4.0 | 5.0 | 0.00 | 0.00 | 0.00 | 41 | 1012.9 |
| 20260902162338 | 94 | 146 | 1.0 | 4.0 | 0.00 | 0.00 | 0.00 | 42 | 1012.9 |
| 20260902161327 | 94 | 98 | 1.0 | 4.0 | 0.00 | 0.00 | 0.00 | 42 | 1012.9 |
| 20260902160333 | 93 | 76 | 2.0 | 4.0 | 0.00 | 0.00 | 0.00 | 44 | 1012.9 |
| 20260902155340 | 93 | 355 | 0.0 | 4.0 | 0.00 | 0.00 | 0.00 | 44 | 1013.0 |
| 20260902154330 | 92 | 76 | 2.0 | 4.0 | 0.00 | 0.00 | 0.00 | 46 | 1012.8 |
| 20260902153337 | 91 | 360 | 0.0 | 2.0 | 0.00 | 0.00 | 0.00 | 48 | 1012.9 |
| 20260902152344 | 91 | 52 | 2.0 | 4.0 | 0.00 | 0.00 | 0.00 | 49 | 1012.9 |
| 20260902151331 | 90 | 346 | 2.0 | 4.0 | 0.00 | 0.00 | 0.00 | 50 | 1012.9 |
| 20260902150342 | 89 | 19 | 2.0 | 3.0 | 0.00 | 0.00 | 0.00 | 52 | 1012.8 |
| 20260902145328 | 88 | 88 | 1.0 | 6.0 | 0.00 | 0.00 | 0.00 | 53 | 1012.6 |
| 20260902144334 | 87 | 60 | 1.0 | 4.0 | 0.00 | 0.00 | 0.00 | 55 | 1012.5 |
| 20260902143341 | 87 | 109 | 1.0 | 6.0 | 0.00 | 0.00 | 0.00 | 55 | 1012.5 |
| 20260902142332 | 86 | 84 | 1.0 | 4.0 | 0.00 | 0.00 | 0.00 | 56 | 1012.4 |
| 20260902141339 | 85 | 90 | 2.0 | 4.0 | 0.00 | 0.00 | 0.00 | 57 | 1012.3 |
| 20260902140327 | 85 | 98 | 1.0 | 2.0 | 0.00 | 0.00 | 0.00 | 59 | 1012.3 |